SAS15C ENGM-EFHK

Flight info

Callsign SAS15C
Flight time 1h 4m
Altitude 39000
Route MASEV DCT OTKIL Y368 LAKUT
Aircraft A20N/M-SDE2E3FGHIRWXY/LB1

Departure

Time 2026-05-07 18:22
Airport Oslo-Gardermoen International Airport (ENGM)

Arrival

Time 2026-05-07 19:26
Airport Helsinki Vantaa Airport (EFHK)
Time Latitude Longitude Altitude Speed Heading
2026-05-07 17:46 60.19588 11.09277 688 ft 0 kts 196°
2026-05-07 18:06 60.19589 11.09277 688 ft 0 kts 196°
2026-05-07 18:06 60.19602 11.09285 688 ft 2 kts 195°
2026-05-07 18:06 60.19617 11.09294 688 ft 2 kts 196°
2026-05-07 18:07 60.19631 11.09302 688 ft 2 kts 196°
2026-05-07 18:07 60.19645 11.09310 688 ft 2 kts 196°
2026-05-07 18:07 60.19660 11.09319 688 ft 1 kts 196°
2026-05-07 18:07 60.19662 11.09320 688 ft 0 kts 196°
2026-05-07 18:12 60.19661 11.09320 688 ft 0 kts 185°
2026-05-07 18:13 60.19659 11.09323 688 ft 0 kts 147°
2026-05-07 18:13 60.19659 11.09332 688 ft 1 kts 93°
2026-05-07 18:13 60.19661 11.09363 688 ft 3 kts 76°
2026-05-07 18:13 60.19667 11.09415 688 ft 4 kts 76°
2026-05-07 18:14 60.19669 11.09487 688 ft 5 kts 97°
2026-05-07 18:14 60.19674 11.09575 688 ft 7 kts 55°
2026-05-07 18:14 60.19682 11.09591 688 ft 0 kts 35°
2026-05-07 18:15 60.19688 11.09600 688 ft 2 kts 33°
2026-05-07 18:15 60.19702 11.09612 688 ft 0 kts 18°
2026-05-07 18:17 60.19747 11.09642 688 ft 14 kts 17°
2026-05-07 18:17 60.19847 11.09700 688 ft 15 kts 15°
2026-05-07 18:17 60.19950 11.09757 688 ft 15 kts 15°
2026-05-07 18:17 60.20045 11.09827 688 ft 12 kts 44°
2026-05-07 18:18 60.20051 11.09986 688 ft 12 kts 104°
2026-05-07 18:18 60.20027 11.10158 688 ft 13 kts 106°
2026-05-07 18:18 60.20001 11.10338 688 ft 13 kts 105°
2026-05-07 18:18 60.19973 11.10528 688 ft 14 kts 106°
2026-05-07 18:19 60.19946 11.10725 688 ft 15 kts 105°
2026-05-07 18:19 60.19915 11.10932 688 ft 15 kts 106°
2026-05-07 18:19 60.19884 11.11142 688 ft 16 kts 108°
2026-05-07 18:19 60.19851 11.11359 688 ft 16 kts 106°
2026-05-07 18:20 60.19883 11.11547 688 ft 16 kts 21°
2026-05-07 18:20 60.19989 11.11613 688 ft 16 kts 15°
2026-05-07 18:20 60.20100 11.11675 688 ft 16 kts 16°
2026-05-07 18:20 60.20169 11.11784 688 ft 12 kts 80°
2026-05-07 18:21 60.20153 11.11958 688 ft 12 kts 108°
2026-05-07 18:21 60.20123 11.12130 688 ft 13 kts 116°
2026-05-07 18:21 60.20045 11.12206 688 ft 9 kts 188°
2026-05-07 18:21 60.20035 11.12201 688 ft 0 kts 192°
2026-05-07 18:22 60.19923 11.12140 688 ft 52 kts 197°
2026-05-07 18:22 60.19582 11.11940 688 ft 101 kts 196°
2026-05-07 18:22 60.18322 11.11190 774 ft 171 kts 196°
2026-05-07 18:22 60.17172 11.10482 1439 ft 174 kts 196°
2026-05-07 18:23 60.16098 11.09821 2428 ft 159 kts 196°
2026-05-07 18:23 60.15100 11.09201 3203 ft 152 kts 195°
2026-05-07 18:23 60.14116 11.08606 3800 ft 151 kts 190°
2026-05-07 18:23 60.13052 11.08865 4184 ft 164 kts 148°
2026-05-07 18:24 60.12204 11.10478 4607 ft 178 kts 130°
2026-05-07 18:24 60.11357 11.12408 5055 ft 195 kts 131°
2026-05-07 18:24 60.10406 11.14500 5524 ft 212 kts 132°
2026-05-07 18:24 60.09368 11.16735 5994 ft 229 kts 133°
2026-05-07 18:25 60.08247 11.19192 6422 ft 252 kts 127°
2026-05-07 18:25 60.07540 11.22380 7211 ft 258 kts 97°
2026-05-07 18:25 60.07642 11.26012 7880 ft 269 kts 79°
2026-05-07 18:25 60.07972 11.29701 8666 ft 278 kts 79°
2026-05-07 18:26 60.08308 11.33518 9541 ft 283 kts 79°
2026-05-07 18:26 60.08643 11.37392 10434 ft 287 kts 79°
2026-05-07 18:26 60.08979 11.41347 11259 ft 293 kts 79°
2026-05-07 18:26 60.09315 11.45360 11986 ft 301 kts 79°
2026-05-07 18:27 60.09666 11.49588 12688 ft 311 kts 79°
2026-05-07 18:27 60.10017 11.53844 13487 ft 317 kts 79°
2026-05-07 18:27 60.10371 11.58180 14252 ft 322 kts 79°
2026-05-07 18:27 60.10733 11.62630 15020 ft 327 kts 79°
2026-05-07 18:28 60.11102 11.67161 15765 ft 332 kts 80°
2026-05-07 18:28 60.11459 11.71574 16452 ft 338 kts 80°
2026-05-07 18:28 60.11837 11.76275 17154 ft 343 kts 79°
2026-05-07 18:28 60.12214 11.80985 17800 ft 350 kts 79°
2026-05-07 18:29 60.12597 11.85782 18442 ft 355 kts 79°
2026-05-07 18:29 60.12985 11.90686 19115 ft 360 kts 79°
2026-05-07 18:29 60.13380 11.95693 19765 ft 365 kts 79°
2026-05-07 18:29 60.13772 12.00698 20387 ft 370 kts 79°
2026-05-07 18:30 60.14171 12.05803 21028 ft 374 kts 79°
2026-05-07 18:30 60.14572 12.10967 21648 ft 379 kts 78°
2026-05-07 18:30 60.14977 12.16215 22242 ft 384 kts 78°
2026-05-07 18:30 60.15379 12.21449 22822 ft 388 kts 78°
2026-05-07 18:31 60.15789 12.26806 23364 ft 393 kts 78°
2026-05-07 18:31 60.16204 12.32284 23938 ft 397 kts 78°
2026-05-07 18:31 60.16618 12.37754 24496 ft 401 kts 78°
2026-05-07 18:31 60.17032 12.43278 25056 ft 405 kts 78°
2026-05-07 18:32 60.17442 12.48814 25568 ft 409 kts 77°
2026-05-07 18:32 60.17862 12.54468 26074 ft 413 kts 78°
2026-05-07 18:32 60.18262 12.60192 26567 ft 417 kts 78°
2026-05-07 18:32 60.18645 12.65951 27072 ft 421 kts 79°
2026-05-07 18:33 60.19025 12.71713 27535 ft 424 kts 79°
2026-05-07 18:33 60.19394 12.77370 27959 ft 428 kts 79°
2026-05-07 18:33 60.19782 12.83327 28411 ft 431 kts 79°
2026-05-07 18:33 60.20166 12.89257 28829 ft 434 kts 79°
2026-05-07 18:34 60.20550 12.95240 29259 ft 438 kts 79°
2026-05-07 18:34 60.20938 13.01301 29660 ft 441 kts 78°
2026-05-07 18:34 60.21327 13.07432 30044 ft 445 kts 78°
2026-05-07 18:34 60.21717 13.13623 30459 ft 448 kts 78°
2026-05-07 18:35 60.22104 13.19824 30841 ft 451 kts 78°
2026-05-07 18:35 60.22495 13.26081 31210 ft 455 kts 78°
2026-05-07 18:35 60.22882 13.32366 31565 ft 458 kts 79°
2026-05-07 18:35 60.23269 13.38715 31930 ft 460 kts 78°
2026-05-07 18:36 60.23654 13.45073 32261 ft 463 kts 79°
2026-05-07 18:36 60.24038 13.51479 32583 ft 466 kts 78°
2026-05-07 18:36 60.24423 13.57949 32919 ft 468 kts 78°
2026-05-07 18:36 60.24806 13.64418 33207 ft 471 kts 78°
2026-05-07 18:37 60.25172 13.70646 33472 ft 473 kts 79°
2026-05-07 18:37 60.25548 13.77120 33732 ft 476 kts 79°
2026-05-07 18:37 60.25925 13.83676 33993 ft 478 kts 79°
2026-05-07 18:37 60.26301 13.90261 34232 ft 481 kts 79°
2026-05-07 18:38 60.26677 13.96962 34515 ft 482 kts 79°
2026-05-07 18:38 60.27050 14.03610 34739 ft 484 kts 79°
2026-05-07 18:38 60.27426 14.10349 34954 ft 484 kts 80°
2026-05-07 18:38 60.27797 14.17058 35232 ft 483 kts 80°
2026-05-07 18:39 60.28160 14.23677 35506 ft 482 kts 81°
2026-05-07 18:39 60.28521 14.30340 35768 ft 480 kts 81°
2026-05-07 18:39 60.28876 14.36990 36047 ft 478 kts 81°
2026-05-07 18:39 60.29224 14.43587 36290 ft 477 kts 81°
2026-05-07 18:40 60.29570 14.50201 36530 ft 476 kts 81°
2026-05-07 18:40 60.29912 14.56782 36754 ft 474 kts 81°
2026-05-07 18:40 60.30251 14.63380 36971 ft 474 kts 82°
2026-05-07 18:40 60.30588 14.69964 37170 ft 473 kts 83°
2026-05-07 18:41 60.30905 14.76231 37349 ft 472 kts 83°
2026-05-07 18:41 60.31227 14.82699 37537 ft 472 kts 83°
2026-05-07 18:41 60.31552 14.89267 37703 ft 472 kts 83°
2026-05-07 18:41 60.31873 14.95843 37886 ft 472 kts 84°
2026-05-07 18:42 60.32186 15.02334 38042 ft 472 kts 84°
2026-05-07 18:42 60.32501 15.08916 38193 ft 473 kts 84°
2026-05-07 18:42 60.32812 15.15476 38335 ft 473 kts 84°
2026-05-07 18:42 60.33121 15.22078 38477 ft 474 kts 84°
2026-05-07 18:43 60.33428 15.28676 38635 ft 474 kts 84°
2026-05-07 18:43 60.33730 15.35280 38789 ft 474 kts 84°
2026-05-07 18:43 60.34027 15.41819 38929 ft 475 kts 84°
2026-05-07 18:43 60.34325 15.48458 39090 ft 475 kts 85°
2026-05-07 18:44 60.34620 15.55113 39103 ft 476 kts 84°
2026-05-07 18:44 60.35195 15.68320 39112 ft 475 kts 85°
2026-05-07 18:45 60.35734 15.80938 39125 ft 475 kts 85°
2026-05-07 18:45 60.36286 15.94173 39122 ft 474 kts 85°
2026-05-07 18:46 60.36821 16.07321 39110 ft 473 kts 85°
2026-05-07 18:46 60.37347 16.20602 39127 ft 475 kts 85°
2026-05-07 18:47 60.37856 16.33804 39132 ft 476 kts 85°
2026-05-07 18:47 60.38359 16.47130 39121 ft 476 kts 85°
2026-05-07 18:48 60.38845 16.60431 39142 ft 477 kts 85°
2026-05-07 18:48 60.39314 16.73555 39132 ft 478 kts 86°
2026-05-07 18:49 60.39773 16.86916 39136 ft 479 kts 86°
2026-05-07 18:49 60.40224 17.00326 39147 ft 480 kts 86°
2026-05-07 18:50 60.40661 17.13659 39129 ft 481 kts 86°
2026-05-07 18:50 60.41086 17.27087 39131 ft 481 kts 86°
2026-05-07 18:51 60.41501 17.40579 39137 ft 481 kts 86°
2026-05-07 18:51 60.41900 17.54041 39162 ft 481 kts 86°
2026-05-07 18:52 60.42283 17.67409 39142 ft 481 kts 88°
2026-05-07 18:52 60.42654 17.80895 39145 ft 481 kts 87°
2026-05-07 18:53 60.43010 17.94356 39158 ft 482 kts 87°
2026-05-07 18:53 60.43353 18.07760 39157 ft 482 kts 87°
2026-05-07 18:54 60.43683 18.21315 39150 ft 482 kts 87°
2026-05-07 18:54 60.43998 18.34748 39160 ft 482 kts 87°
2026-05-07 18:55 60.44302 18.48249 39155 ft 482 kts 87°
2026-05-07 18:55 60.44592 18.61727 39167 ft 482 kts 87°
2026-05-07 18:56 60.44870 18.75116 39141 ft 482 kts 88°
2026-05-07 18:56 60.45129 18.88604 39153 ft 484 kts 88°
2026-05-07 18:57 60.45380 19.02219 39154 ft 483 kts 88°
2026-05-07 18:57 60.45615 19.15776 39162 ft 484 kts 88°
2026-05-07 18:58 60.45836 19.29276 39161 ft 483 kts 88°
2026-05-07 18:58 60.46046 19.42773 39154 ft 482 kts 88°
2026-05-07 18:59 60.46242 19.56372 39164 ft 483 kts 88°
2026-05-07 18:59 60.46420 19.69688 39160 ft 483 kts 89°
2026-05-07 19:00 60.46585 19.83079 39170 ft 483 kts 89°
2026-05-07 19:00 60.46738 19.96617 39157 ft 483 kts 89°
2026-05-07 19:01 60.46877 20.10122 39157 ft 482 kts 89°
2026-05-07 19:01 60.47004 20.23658 38930 ft 482 kts 89°
2026-05-07 19:01 60.47060 20.30397 38194 ft 490 kts 89°
2026-05-07 19:02 60.47113 20.37341 37436 ft 497 kts 89°
2026-05-07 19:02 60.47164 20.44319 36801 ft 499 kts 88°
2026-05-07 19:02 60.47213 20.51265 36245 ft 499 kts 88°
2026-05-07 19:02 60.47259 20.58279 35701 ft 498 kts 88°
2026-05-07 19:03 60.47301 20.65202 35132 ft 498 kts 89°
2026-05-07 19:03 60.47340 20.72055 34539 ft 498 kts 89°
2026-05-07 19:03 60.47373 20.78892 33997 ft 498 kts 89°
2026-05-07 19:03 60.47403 20.85875 33587 ft 494 kts 89°
2026-05-07 19:04 60.47429 20.92760 33180 ft 490 kts 89°
2026-05-07 19:04 60.47452 20.99591 32738 ft 486 kts 89°
2026-05-07 19:04 60.47472 21.06414 32147 ft 483 kts 89°
2026-05-07 19:04 60.47485 21.13105 31441 ft 481 kts 89°
2026-05-07 19:05 60.47494 21.19786 30636 ft 477 kts 89°
2026-05-07 19:05 60.47504 21.26416 29712 ft 472 kts 89°
2026-05-07 19:05 60.47509 21.33063 28955 ft 471 kts 89°
2026-05-07 19:05 60.47506 21.39653 28465 ft 466 kts 89°
2026-05-07 19:06 60.47477 21.46099 28000 ft 462 kts 89°
2026-05-07 19:06 60.47387 21.59007 27029 ft 455 kts 89°
2026-05-07 19:06 60.47340 21.65350 26559 ft 452 kts 90°
2026-05-07 19:07 60.47292 21.71615 26062 ft 449 kts 90°
2026-05-07 19:07 60.47239 21.77854 25583 ft 446 kts 90°
2026-05-07 19:07 60.47186 21.83996 25126 ft 443 kts 90°
2026-05-07 19:07 60.47131 21.90001 24664 ft 440 kts 91°
2026-05-07 19:08 60.47071 21.96176 24192 ft 437 kts 91°
2026-05-07 19:08 60.47008 22.02302 23747 ft 434 kts 91°
2026-05-07 19:08 60.46942 22.08354 23286 ft 431 kts 91°
2026-05-07 19:08 60.46875 22.14300 22845 ft 427 kts 90°
2026-05-07 19:09 60.46804 22.20313 22440 ft 423 kts 90°
2026-05-07 19:09 60.46733 22.26191 21987 ft 420 kts 90°
2026-05-07 19:09 60.46661 22.32027 21570 ft 417 kts 90°
2026-05-07 19:09 60.46584 22.37887 21160 ft 413 kts 90°
2026-05-07 19:10 60.46505 22.43675 20733 ft 410 kts 90°
2026-05-07 19:10 60.46428 22.49390 20346 ft 406 kts 90°
2026-05-07 19:10 60.46351 22.55039 19916 ft 404 kts 90°
2026-05-07 19:10 60.46270 22.60713 19477 ft 401 kts 90°
2026-05-07 19:11 60.46188 22.66269 19084 ft 397 kts 90°
2026-05-07 19:11 60.46106 22.71741 18648 ft 395 kts 90°
2026-05-07 19:11 60.46027 22.76878 18242 ft 391 kts 90°
2026-05-07 19:11 60.45940 22.82350 17817 ft 387 kts 90°
2026-05-07 19:12 60.45912 22.86926 17453 ft 384 kts 88°
2026-05-07 19:12 60.45947 22.92256 17032 ft 380 kts 87°
2026-05-07 19:12 60.45996 22.97522 16626 ft 377 kts 87°
2026-05-07 19:12 60.46039 23.02808 16199 ft 373 kts 87°
2026-05-07 19:13 60.46072 23.07939 15733 ft 366 kts 88°
2026-05-07 19:13 60.46098 23.13046 15010 ft 361 kts 88°
2026-05-07 19:13 60.46120 23.18104 14319 ft 360 kts 88°
2026-05-07 19:13 60.46137 23.23077 13884 ft 356 kts 88°
2026-05-07 19:14 60.46152 23.28063 13521 ft 351 kts 88°
2026-05-07 19:14 60.46164 23.32935 13100 ft 348 kts 88°
2026-05-07 19:14 60.46175 23.37777 12676 ft 344 kts 88°
2026-05-07 19:14 60.46183 23.42591 12289 ft 340 kts 88°
2026-05-07 19:15 60.46190 23.47377 11884 ft 337 kts 88°
2026-05-07 19:15 60.46195 23.52073 11479 ft 334 kts 88°
2026-05-07 19:15 60.46198 23.56696 11103 ft 330 kts 88°
2026-05-07 19:15 60.46200 23.61334 10709 ft 326 kts 88°
2026-05-07 19:16 60.46200 23.65814 10373 ft 322 kts 89°
2026-05-07 19:16 60.46198 23.70307 10104 ft 319 kts 89°
2026-05-07 19:16 60.46195 23.74453 10090 ft 319 kts 89°
2026-05-07 19:16 60.46189 23.78948 10088 ft 320 kts 89°
2026-05-07 19:17 60.46183 23.83433 10090 ft 319 kts 89°
2026-05-07 19:17 60.46176 23.87898 10072 ft 317 kts 89°
2026-05-07 19:17 60.46167 23.92313 9733 ft 314 kts 89°
2026-05-07 19:17 60.46155 23.96711 9243 ft 314 kts 89°
2026-05-07 19:18 60.46143 24.01096 8818 ft 312 kts 89°
2026-05-07 19:18 60.46129 24.05445 8409 ft 308 kts 89°
2026-05-07 19:18 60.46115 24.09792 7982 ft 306 kts 89°
2026-05-07 19:18 60.46099 24.14071 7565 ft 303 kts 89°
2026-05-07 19:19 60.46083 24.18247 7181 ft 300 kts 89°
2026-05-07 19:19 60.46064 24.22454 7089 ft 299 kts 89°
2026-05-07 19:19 60.46045 24.26637 7005 ft 292 kts 89°
2026-05-07 19:19 60.46025 24.30632 6821 ft 282 kts 89°
2026-05-07 19:20 60.46004 24.34557 6579 ft 275 kts 89°
2026-05-07 19:20 60.45982 24.38352 6215 ft 273 kts 88°
2026-05-07 19:20 60.45958 24.42198 5821 ft 272 kts 88°
2026-05-07 19:20 60.45935 24.45975 5444 ft 270 kts 88°
2026-05-07 19:21 60.45911 24.49791 5072 ft 268 kts 88°
2026-05-07 19:21 60.45886 24.53458 4890 ft 259 kts 88°
2026-05-07 19:21 60.45860 24.57049 4696 ft 249 kts 87°
2026-05-07 19:21 60.45834 24.60476 4468 ft 238 kts 87°
2026-05-07 19:22 60.45809 24.63775 4138 ft 234 kts 87°
2026-05-07 19:22 60.45784 24.66961 3759 ft 233 kts 88°
2026-05-07 19:22 60.45761 24.70112 3440 ft 232 kts 88°
2026-05-07 19:22 60.45734 24.73374 3133 ft 231 kts 87°
2026-05-07 19:23 60.45707 24.76580 2814 ft 230 kts 87°
2026-05-07 19:23 60.45680 24.79818 2488 ft 230 kts 88°
2026-05-07 19:23 60.45332 24.82943 2147 ft 236 kts 117°
2026-05-07 19:23 60.44203 24.85287 1997 ft 230 kts 148°
2026-05-07 19:24 60.42815 24.86677 1982 ft 216 kts 156°
2026-05-07 19:24 60.41483 24.87848 1950 ft 202 kts 155°
2026-05-07 19:24 60.40252 24.89040 1762 ft 198 kts 152°
2026-05-07 19:24 60.39018 24.90312 1499 ft 199 kts 152°
2026-05-07 19:25 60.37802 24.91571 1304 ft 189 kts 153°
2026-05-07 19:25 60.36676 24.92722 1043 ft 177 kts 153°
2026-05-07 19:25 60.35626 24.93795 782 ft 162 kts 153°
2026-05-07 19:25 60.34667 24.94777 552 ft 148 kts 154°
2026-05-07 19:26 60.33801 24.95665 349 ft 133 kts 154°
2026-05-07 19:26 60.33006 24.96478 210 ft 127 kts 155°
2026-05-07 19:26 60.32245 24.97242 161 ft 105 kts 153°
2026-05-07 19:26 60.31803 24.97706 154 ft 34 kts 153°
2026-05-07 19:27 60.31692 24.97661 155 ft 9 kts 223°
2026-05-07 19:27 60.31665 24.97593 156 ft 0 kts 237°
2026-05-07 19:27 60.31664 24.97588 156 ft 1 kts 239°
2026-05-07 19:27 60.31659 24.97566 156 ft 1 kts 249°
2026-05-07 19:28 60.31658 24.97562 156 ft 0 kts 252°
2026-05-07 19:28 60.31658 24.97561 156 ft 0 kts 253°
2026-05-07 19:29 60.31670 24.97512 156 ft 8 kts 320°
2026-05-07 19:29 60.31749 24.97413 157 ft 18 kts 336°
2026-05-07 19:29 60.31871 24.97295 158 ft 6 kts 334°
2026-05-07 19:29 60.31928 24.97206 160 ft 14 kts 285°
2026-05-07 19:30 60.31929 24.97095 161 ft 11 kts 266°
2026-05-07 19:30 60.31915 24.97010 161 ft 2 kts 242°
2026-05-07 19:30 60.31907 24.96977 162 ft 0 kts 244°
2026-05-07 19:30 60.31902 24.96959 162 ft 2 kts 243°
2026-05-07 19:31 60.31902 24.96958 162 ft 0 kts 243°